Location: Chimay
(50.0486°N, 4.3171°E)
Time: 07:39:19
(UTC+00:00)

Cosmos 1238 Rocket - Pass Details

Date: 08 August 2020
Orbit: 376 x 1027 km, 82.9° (Epoch: 26 September)

Event Time Altitude Azimuth Distance (km) Brightness Sun altitude
Exits shadow 22:07:22 18° 252° (WSW) 1,027 4.3 -20.5°
Maximum altitude 22:08:34 23° 286° (WNW) 867 4.3 -20.6°
Drops below altitude 10° 22:11:02 10° 343° (NNW) 1,400 6.1 -20.8°
Sets 22:13:16 0° 359° (N) 2,267 7.1 -20.9°
